STARLINK-32370

Last updated on Thu Nov 21 2024 00:02:04 GMT+0000 (Coordinated Universal Time)

1 61635U 24191Q 24325.58335648 -.01503016 00000+0 -34426-1 0 9993 2 61635 42.9995 329.6665 0001677 276.6638 94.2438 15.44998859 5587
UTC large
Height (km)
Speed (km/s)
/
Latitude / Longitude
Inclination (degrees)
Orbital Period (minutes)
Azimuth
Elevation
Range (km)
Doppler Factor

Next 0 passes for location: London (51.5072 / 0.1276)

Sorry there are no passes over London.